Time,TemperatureF,DewpointF,PressureIn,WindDirection,WindDirectionDegrees,WindSpeedMPH,WindSpeedGustMPH,Humidity,HourlyPrecipIn,Conditions,Clouds,dailyrainin,SoftwareType,DateUTC
2013-04-26 00:02:00,53.0,29.0,-100.00,SSE,160,13.0,15.0,40,-99.99,,,-99.99,,2013-04-26 05:02:00,
2013-04-26 00:12:00,53.0,30.0,-100.00,SSE,155,12.0,15.0,42,-99.99,,,-99.99,,2013-04-26 05:12:00,
2013-04-26 00:22:00,52.0,30.0,-100.00,SSE,155,12.0,16.0,42,-99.99,,,-99.99,,2013-04-26 05:22:00,
2013-04-26 00:32:00,52.0,31.0,-100.00,SSE,155,12.0,14.0,44,-99.99,,,-99.99,,2013-04-26 05:32:00,
2013-04-26 00:42:00,52.0,31.0,-100.00,SSE,155,12.0,14.0,44,-99.99,,,-99.99,,2013-04-26 05:42:00,
2013-04-26 00:52:00,53.0,31.0,-100.00,SSE,150,12.0,15.0,44,-99.99,,,-99.99,,2013-04-26 05:52:00,
2013-04-26 01:02:00,53.0,31.0,-100.00,SSE,150,12.0,15.0,44,-99.99,,,-99.99,,2013-04-26 06:02:00,
2013-04-26 01:11:00,52.0,31.0,-100.00,SSE,155,12.0,14.0,45,-99.99,,,-99.99,,2013-04-26 06:11:00,
2013-04-26 01:21:00,52.0,32.0,-100.00,SSE,160,13.0,15.0,46,-99.99,,,-99.99,,2013-04-26 06:21:00,
2013-04-26 01:32:00,52.0,32.0,-100.00,SSE,160,14.0,17.0,46,-99.99,,,-99.99,,2013-04-26 06:32:00,
2013-04-26 01:41:00,52.0,32.0,-100.00,SSE,160,14.0,17.0,46,-99.99,,,-99.99,,2013-04-26 06:41:00,
2013-04-26 01:52:00,52.0,33.0,-100.00,SSE,160,11.0,13.0,48,-99.99,,,-99.99,,2013-04-26 06:52:00,
2013-04-26 02:01:00,52.0,33.0,-100.00,SSE,160,11.0,13.0,48,-99.99,,,-99.99,,2013-04-26 07:01:00,
2013-04-26 02:11:00,52.0,33.0,-100.00,SSE,160,11.0,13.0,48,-99.99,,,-99.99,,2013-04-26 07:11:00,
2013-04-26 02:22:00,52.0,33.0,-100.00,SSE,150,11.0,13.0,49,-99.99,,,-99.99,,2013-04-26 07:22:00,
2013-04-26 02:31:00,52.0,33.0,-100.00,SSE,165,9.0,10.0,50,-99.99,,,-99.99,,2013-04-26 07:31:00,
2013-04-26 02:42:00,52.0,33.0,-100.00,SSE,165,9.0,10.0,50,-99.99,,,-99.99,,2013-04-26 07:42:00,
2013-04-26 02:52:00,52.0,34.0,-100.00,SSE,160,7.0,11.0,52,-99.99,,,-99.99,,2013-04-26 07:52:00,
2013-04-26 03:02:00,52.0,34.0,-100.00,SSE,160,7.0,11.0,52,-99.99,,,-99.99,,2013-04-26 08:02:00,
2013-04-26 03:11:00,52.0,35.0,-100.00,SSE,150,8.0,12.0,53,-99.99,,,-99.99,,2013-04-26 08:11:00,
2013-04-26 03:21:00,52.0,35.0,-100.00,SSE,150,8.0,9.0,53,-99.99,,,-99.99,,2013-04-26 08:21:00,
2013-04-26 03:32:00,52.0,35.0,-100.00,SSE,155,9.0,11.0,54,-99.99,,,-99.99,,2013-04-26 08:32:00,
2013-04-26 03:42:00,52.0,35.0,-100.00,SSE,155,9.0,11.0,54,-99.99,,,-99.99,,2013-04-26 08:42:00,
2013-04-26 03:51:00,52.0,36.0,-100.00,SSE,165,11.0,13.0,55,-99.99,,,-99.99,,2013-04-26 08:51:00,
2013-04-26 04:01:00,52.0,36.0,-100.00,SSE,165,11.0,13.0,55,-99.99,,,-99.99,,2013-04-26 09:01:00,
2013-04-26 04:11:00,52.0,36.0,-100.00,South,175,11.0,12.0,55,-99.99,,,-99.99,,2013-04-26 09:11:00,
2013-04-26 04:21:00,52.0,36.0,-100.00,South,170,9.0,12.0,55,-99.99,,,-99.99,,2013-04-26 09:21:00,
2013-04-26 04:33:00,51.0,36.0,-100.00,South,175,8.0,10.0,57,-99.99,,,-99.99,,2013-04-26 09:33:00,
2013-04-26 04:42:00,51.0,36.0,-100.00,South,175,8.0,10.0,57,-99.99,,,-99.99,,2013-04-26 09:42:00,
2013-04-26 04:53:00,50.0,37.0,-100.00,SSE,165,11.0,12.0,60,-99.99,,,-99.99,,2013-04-26 09:53:00,
2013-04-26 05:03:00,50.0,37.0,-100.00,SSE,165,11.0,12.0,60,-99.99,,,-99.99,,2013-04-26 10:03:00,
2013-04-26 05:12:00,50.0,37.0,-100.00,South,170,11.0,12.0,60,-99.99,,,-99.99,,2013-04-26 10:12:00,
2013-04-26 05:23:00,51.0,37.0,-100.00,SSE,160,11.0,12.0,60,-99.99,,,-99.99,,2013-04-26 10:23:00,
2013-04-26 05:33:00,51.0,37.0,-100.00,SSE,155,11.0,11.0,58,-99.99,,,-99.99,,2013-04-26 10:33:00,
2013-04-26 05:42:00,51.0,37.0,-100.00,SSE,155,11.0,11.0,58,-99.99,,,-99.99,,2013-04-26 10:42:00,
2013-04-26 05:52:00,50.0,36.0,-100.00,SSE,165,11.0,12.0,59,-99.99,,,-99.99,,2013-04-26 10:52:00,
2013-04-26 06:02:00,50.0,36.0,-100.00,SSE,165,11.0,12.0,59,-99.99,,,-99.99,,2013-04-26 11:02:00,
2013-04-26 06:11:00,50.0,36.0,-100.00,SSE,160,11.0,13.0,59,-99.99,,,-99.99,,2013-04-26 11:11:00,
2013-04-26 06:22:00,50.0,36.0,-100.00,SSE,165,12.0,16.0,59,-99.99,,,-99.99,,2013-04-26 11:22:00,
2013-04-26 06:32:00,51.0,36.0,-100.00,SSE,165,10.0,12.0,58,-99.99,,,-99.99,,2013-04-26 11:32:00,
2013-04-26 06:41:00,51.0,36.0,-100.00,SSE,165,10.0,12.0,58,-99.99,,,-99.99,,2013-04-26 11:41:00,
2013-04-26 06:52:00,51.0,36.0,-100.00,South,175,11.0,12.0,56,-99.99,,,-99.99,,2013-04-26 11:52:00,
2013-04-26 07:01:00,51.0,36.0,-100.00,South,175,11.0,12.0,56,-99.99,,,-99.99,,2013-04-26 12:01:00,
2013-04-26 07:11:00,52.0,36.0,-100.00,South,170,12.0,15.0,55,-99.99,,,-99.99,,2013-04-26 12:11:00,
2013-04-26 07:21:00,52.0,36.0,-100.00,South,180,9.0,10.0,55,-99.99,,,-99.99,,2013-04-26 12:21:00,
2013-04-26 07:32:00,53.0,36.0,-100.00,South,175,11.0,13.0,54,-99.99,,,-99.99,,2013-04-26 12:32:00,
2013-04-26 07:41:00,53.0,36.0,-100.00,South,175,11.0,13.0,54,-99.99,,,-99.99,,2013-04-26 12:41:00,
2013-04-26 07:52:00,54.0,37.0,-100.00,South,185,15.0,19.0,52,-99.99,,,-99.99,,2013-04-26 12:52:00,
2013-04-26 08:01:00,54.0,37.0,-100.00,South,185,15.0,19.0,52,-99.99,,,-99.99,,2013-04-26 13:01:00,
2013-04-26 08:11:00,55.0,36.0,-100.00,South,180,17.0,21.0,50,-99.99,,,-99.99,,2013-04-26 13:11:00,
2013-04-26 08:21:00,56.0,37.0,-100.00,South,190,21.0,28.0,50,-99.99,,,-99.99,,2013-04-26 13:21:00,
2013-04-26 08:31:00,57.0,37.0,-100.00,South,190,16.0,21.0,49,-99.99,,,-99.99,,2013-04-26 13:31:00,
2013-04-26 08:41:00,57.0,37.0,-100.00,South,190,16.0,21.0,49,-99.99,,,-99.99,,2013-04-26 13:41:00,
2013-04-26 08:52:00,58.0,38.0,-100.00,SSW,195,24.0,29.0,47,-99.99,,,-99.99,,2013-04-26 13:52:00,
2013-04-26 09:01:00,58.0,38.0,-100.00,SSW,195,24.0,29.0,47,-99.99,,,-99.99,,2013-04-26 14:01:00,
2013-04-26 09:11:00,58.0,38.0,-100.00,South,185,24.0,28.0,47,-99.99,,,-99.99,,2013-04-26 14:11:00,
2013-04-26 09:21:00,58.0,38.0,-100.00,SSW,195,20.0,24.0,47,-99.99,,,-99.99,,2013-04-26 14:21:00,
2013-04-26 09:32:00,58.0,38.0,-100.00,SSW,195,20.0,24.0,47,-99.99,,,-99.99,,2013-04-26 14:32:00,
2013-04-26 09:41:00,58.0,38.0,-100.00,SSW,195,20.0,24.0,47,-99.99,,,-99.99,,2013-04-26 14:41:00,
2013-04-26 09:51:00,58.0,38.0,-100.00,SSW,195,20.0,24.0,47,-99.99,,,-99.99,,2013-04-26 14:51:00,
2013-04-26 10:01:00,58.0,38.0,-100.00,SSW,195,20.0,24.0,47,-99.99,,,-99.99,,2013-04-26 15:01:00,